This is the latest recevied weather packets stored in our database for station/object VA2RBQ-7. If no packets are shown the sender has not sent any weather packets the latest 10 day(s).
| Time | Temp. | Humidity | Pressure | Rain* | Wind** | Luminosity | Snow |
|---|---|---|---|---|---|---|---|
| 1787854918 | 20.56° C | 59% | 1020.3 hPa | 0 mm | - | - | - |
| 1787854616 | 21.67° C | 59% | 1020.4 hPa | 0 mm | - | - | - |
| 1787854313 | 20.56° C | 59% | 1020.3 hPa | 0 mm | - | - | - |
| 1787854010 | 21.67° C | 59% | 1020.4 hPa | 0 mm | - | - | - |
| 1787853708 | 22.22° C | 59% | 1020.3 hPa | 0 mm | - | - | - |
| 1787853405 | 22.22° C | 59% | 1020.5 hPa | 0 mm | - | - | - |
| 1787853102 | 18.33° C | 59% | 1020.4 hPa | 0 mm | - | - | - |
| 1787852800 | 18.33° C | 59% | 1020.5 hPa | 0 mm | - | - | - |
| 1787852498 | 20° C | 59% | 1020.3 hPa | 0 mm | - | - | - |
| 1787852195 | 21.67° C | 59% | 1020.4 hPa | 0 mm | - | - | - |
| 1787851892 | 21.11° C | 59% | 1020.5 hPa | 0 mm | - | - | - |
| 1787851590 | 19.44° C | 59% | 1020.5 hPa | 0 mm | - | - | - |
| 1787851287 | 19.44° C | 59% | 1020.5 hPa | 0 mm | - | - | - |
| 1787850985 | 22.22° C | 59% | 1020.6 hPa | 0 mm | - | - | - |
| 1787850682 | 21.67° C | 59% | 1020.6 hPa | 0 mm | - | - | - |
| 1787850379 | 20.56° C | 59% | 1020.7 hPa | 0 mm | - | - | - |
| 1787850077 | 21.11° C | 59% | 1020.6 hPa | 0 mm | - | - | - |
| 1787849774 | 20° C | 59% | 1020.6 hPa | 0 mm | - | - | - |
| 1787849472 | 19.44° C | 59% | 1020.7 hPa | 0 mm | - | - | - |
| 1787849169 | 20° C | 59% | 1020.8 hPa | 0 mm | - | - | - |
| 1787848866 | 20.56° C | 59% | 1020.8 hPa | 0 mm | - | - | - |
| 1787848564 | 20° C | 60% | 1020.8 hPa | 0 mm | - | - | - |
| 1787848261 | 20.56° C | 60% | 1020.8 hPa | 0 mm | - | - | - |
| 1787847959 | 19.44° C | 60% | 1020.8 hPa | 0 mm | - | - | - |
| 1787847656 | 18.89° C | 60% | 1021 hPa | 0 mm | - | - | - |
* Rain since midnight (hover to see other rain measurements)
** Current wind speed in m/s (hover to see current wind gust speed)